Location: Sears
(37.7625°N, 100.1060°W)
Time: 07:45:14
(UTC+00:00)

X-37B - Pass Details

Date: 31 July 2021
Orbit: 381 x 393 km, 45.0° (Epoch: 29 August)

Event Time Altitude Azimuth Distance (km) Brightness Sun altitude
Exits shadow 10:36:38 23° 230° (SW) 868 1.7 -12.3°
Maximum altitude 10:38:25 71° 150° (SSE) 403 0.6 -12.0°
Drops below altitude 10° 10:41:33 10° 66° (ENE) 1,397 4.9 -11.5°
Sets 10:43:38 0° 64° (ENE) 2,253 6.5 -11.2°
